Ithaca, NY

10:01 AM EDT on July 25, 2017 (GMT -0400)
Tompkins County

Weather History for KITH - June, 2012

Change the Weather History Date:

Wednesday, June 6, 2012

  Actual Average Record
Temperature  
Mean Temperature 58 °F -  
Max Temperature 72 °F 71 °F 92 °F (2008)
Min Temperature 44 °F 50 °F 35 °F (1929)
Degree Days  
Heating Degree Days 7    
Growing Degree Days 8 (Base 50)    
Moisture  
Dew Point 48 °F    
Average Humidity 75    
Maximum Humidity 100    
Minimum Humidity 41    
Precipitation  
Precipitation 0.00 in - - ()
Sea Level Pressure  
Sea Level Pressure 29.99 in    
Wind  
Wind Speed 3 mph (NNW)    
Max Wind Speed 9 mph    
Max Gust Speed -    
Visibility 8 miles    
Events Fog    
Averages and records for this station are not official NWS values.
T = Trace of Precipitation, MM = Missing Value Source: NWS Daily Summary

Daily Weather History Graph

Daily Weather History Graph

Search for Another Location

Airport or City:

Trip Planner

Search our weather history database for the weather conditions in past years. The results will help you decide how hot, cold, wet, or windy it might be!

Date:

Astronomy

Jun. 06, 2012 Rise Set
Actual Time 5:29 AM EDT 8:40 PM EDT
Civil Twilight 4:54 AM EDT 9:14 PM EDT
Nautical Twilight 4:10 AM EDT 9:59 PM EDT
Astronomical Twilight 3:17 AM EDT 10:52 PM EDT
Moon 10:48 PM EDT (6/6) 7:48 AM EDT (6/6)
Length of Visible Light 16h 20m
Length of Day
15h 11m
Waning Gibbous, 93% of the Moon is Illuminated
Jun 6
Waning Gibbous
Jun 11
Last Quarter
Jun 19
New
Jun 26
First Quarter
Jul 3
Full

Hourly Weather History & Observations

Time (EDT) Temp. Windchill Dew Point Humidity Pressure Visibility Wind Dir Wind Speed Gust Speed Precip Events Conditions
12:56 AM 50.0 °F - 48.9 °F 96% 30.00 in 10.0 mi Calm Calm - N/A   Overcast
1:56 AM 50.0 °F - 48.9 °F 96% 29.99 in 10.0 mi Calm Calm - N/A   Mostly Cloudy
3:56 AM 46.9 °F - 45.9 °F 96% 29.99 in 5.0 mi Calm Calm - N/A   Clear
4:56 AM 45.9 °F 44.6 °F 45.9 °F 100% 29.99 in 1.2 mi ENE 3.5 mph - N/A   Clear
5:03 AM 46.4 °F 45.2 °F 46.4 °F 100% 29.99 in 1.0 mi ENE 3.5 mph - N/A   Clear
5:06 AM 46.4 °F 44.3 °F 46.4 °F 100% 29.99 in 1.5 mi ENE 4.6 mph - N/A   Clear
5:11 AM 44.6 °F 42.2 °F 44.6 °F 100% 29.99 in 3.0 mi ENE 4.6 mph - N/A   Clear
6:19 AM 46.4 °F 45.2 °F 46.4 °F 100% 30.00 in 10.0 mi East 3.5 mph - N/A Fog Partly Cloudy
7:56 AM 54.9 °F - 50.0 °F 84% 30.02 in 10.0 mi Calm Calm - N/A   Partly Cloudy
8:56 AM 61.9 °F - 50.9 °F 67% 30.02 in 10.0 mi Calm Calm - N/A   Scattered Clouds
9:56 AM 63.9 °F - 48.9 °F 58% 30.02 in 10.0 mi WNW 5.8 mph - N/A   Scattered Clouds
11:56 AM 66.9 °F - 46.9 °F 49% 30.00 in 10.0 mi NNW 4.6 mph - N/A   Scattered Clouds
12:56 PM 70.0 °F - 46.9 °F 44% 29.99 in 10.0 mi West 6.9 mph - N/A   Mostly Cloudy
1:56 PM 70.0 °F - 45.0 °F 41% 29.98 in 10.0 mi WNW 9.2 mph - N/A   Mostly Cloudy
2:56 PM 70.9 °F - 47.8 °F 44% 29.96 in 10.0 mi NW 6.9 mph - N/A   Scattered Clouds
3:56 PM 72.9 °F - 47.8 °F 41% 29.94 in 10.0 mi Variable 5.8 mph - N/A   Mostly Cloudy
5:56 PM 64.9 °F - 50.0 °F 58% 29.96 in 10.0 mi SW 6.9 mph - N/A   Mostly Cloudy
6:56 PM 66.9 °F - 48.9 °F 52% 29.96 in 10.0 mi WSW 6.9 mph - N/A   Scattered Clouds
7:56 PM 63.0 °F - 50.0 °F 63% 29.99 in 10.0 mi SSW 3.5 mph - N/A   Scattered Clouds
8:56 PM 57.9 °F - 50.9 °F 77% 29.99 in 10.0 mi Calm Calm - N/A   Mostly Cloudy
9:56 PM 55.9 °F - 50.9 °F 83% 30.01 in 10.0 mi Calm Calm - N/A   Scattered Clouds
10:56 PM 50.9 °F - 50.0 °F 97% 30.01 in 10.0 mi NE 3.5 mph - N/A   Clear